QPF
0.05 0.04 0.05 0.09 0.09 0.05 0.04 0.04 0.04 0.08 0.10 0.11 0.11 0.10 0.09 0.07 0.09 0.08 0.07 0.06 0.07 0.06 0.05 0.05 0.04 0.03 0.04 0.06 0.06 0.06 0.07 0.07 0.08 0.06 0.04 0.03 0.02 0.01 0.01 0.01 0.01 0.02 0.03
0.05 0.05 0.06 0.07 0.06 0.04 0.03 0.04 0.04 0.05 0.08 0.09 0.08 0.07 0.07 0.07 0.08 0.08 0.07 0.06 0.08 0.08 0.08 0.08 0.07 0.06 0.06 0.06 0.05 0.06 0.07 0.07 0.08 0.07 0.06 0.04 0.03 0.02 0.02 0.03 0.02 0.02 0.02
0.06 0.07 0.05 0.04 0.04 0.04 0.04 0.04 0.04 0.07 0.09 0.10 0.09 0.07 0.08 0.08 0.06 0.06 0.05 0.07 0.08 0.08 0.07 0.08 0.08 0.09 0.08 0.06 0.05 0.04 0.04 0.05 0.06 0.07 0.07 0.05 0.03 0.02 0.03 0.04 0.04 0.02 0.03
0.09 0.06 0.04 0.04 0.02 0.03 0.05 0.06 0.05 0.08 0.11 0.13 0.10 0.09 0.10 0.09 0.09 0.09 0.08 0.08 0.07 0.07 0.06 0.06 0.06 0.07 0.07 0.05 0.05 0.05 0.04 0.04 0.05 0.06 0.06 0.05 0.04 0.03 0.02 0.03 0.04 0.03 0.03
0.05 0.03 0.04 0.04 0.03 0.03 0.06 0.08 0.10 0.10 0.11 0.11 0.11 0.12 0.14 0.14 0.13 0.11 0.08 0.08 0.09 0.09 0.07 0.05 0.05 0.04 0.04 0.03 0.04 0.05 0.05 0.05 0.05 0.04 0.05 0.04 0.03 0.02 0.01 0.01 0.01 0.01 0.01
0.05 0.04 0.04 0.03 0.05 0.05 0.06 0.08 0.11 0.11 0.11 0.13 0.15 0.13 0.13 0.13 0.12 0.09 0.07 0.08 0.08 0.10 0.09 0.07 0.05 0.04 0.03 0.04 0.04 0.05 0.06 0.05 0.04 0.04 0.04 0.03 0.03 0.02 0.02 0.02 0.01 0.01 0.01
0.07 0.07 0.06 0.05 0.04 0.04 0.06 0.07 0.07 0.08 0.08 0.10 0.10 0.09 0.09 0.09 0.07 0.07 0.08 0.08 0.08 0.08 0.08 0.08 0.07 0.07 0.05 0.05 0.05 0.06 0.05 0.05 0.04 0.04 0.03 0.02 0.02 0.02 0.02 0.02 0.02 0.01 0.01
0.09 0.10 0.08 0.04 0.03 0.03 0.04 0.05 0.05 0.05 0.05 0.06 0.06 0.06 0.08 0.08 0.08 0.09 0.08 0.07 0.06 0.06 0.06 0.08 0.09 0.10 0.08 0.07 0.06 0.05 0.04 0.04 0.04 0.03 0.03 0.02 0.03 0.03 0.04 0.04 0.04 0.03 0.02
0.08 0.09 0.07 0.05 0.02 0.02 0.02 0.02 0.03 0.03 0.04 0.04 0.04 0.04 0.04 0.05 0.06 0.06 0.06 0.06 0.05 0.05 0.05 0.07 0.08 0.07 0.08 0.06 0.05 0.04 0.04 0.04 0.03 0.03 0.04 0.04 0.05 0.04 0.04 0.03 0.03 0.03 0.03
0.06 0.07 0.06 0.04 0.02 0.02 0.02 0.02 0.03 0.03 0.03 0.02 0.02 0.02 0.03 0.05 0.05 0.04 0.05 0.04 0.03 0.03 0.05 0.05 0.05 0.06 0.07 0.05 0.04 0.04 0.03 0.02 0.03 0.03 0.04 0.04 0.04 0.04 0.04 0.03 0.03 0.03 0.03
0.04 0.05 0.04 0.04 0.03 0.02 0.02 0.02 0.03 0.02 0.02 0.02 0.02 0.03 0.04 0.05 0.05 0.04 0.03 0.03 0.02 0.03 0.04 0.04 0.03 0.04 0.03 0.03 0.03 0.02 0.02 0.02 0.02 0.02 0.02 0.03 0.04 0.04 0.03 0.04 0.05 0.04 0.04
0.04 0.04 0.04 0.04 0.03 0.03 0.03 0.04 0.04 0.04 0.04 0.03 0.03 0.03 0.05 0.05 0.07 0.06 0.05 0.05 0.05 0.04 0.03 0.03 0.02 0.03 0.02 0.02 0.02 0.02 0.01 0.01 0.01 0.02 0.03 0.04 0.04 0.03 0.03 0.04 0.06 0.06 0.06
0.10 0.06 0.05 0.05 0.05 0.06 0.06 0.06 0.07 0.07 0.07 0.06 0.06 0.07 0.08 0.08 0.07 0.06 0.05 0.04 0.03 0.03 0.03 0.02 0.02 0.02 0.02 0.02 0.02 0.02 0.01 0.01 0.01 0.03 0.04 0.04 0.04 0.03 0.02 0.02 0.02 0.02 0.02
0.08 0.05 0.04 0.04 0.05 0.05 0.06 0.05 0.06 0.06 0.04 0.04 0.05 0.06 0.06 0.06 0.05 0.04 0.04 0.03 0.03 0.02 0.02 0.02 0.01 0.01 0.01 0.01 0.02 0.01 0.01 0.02 0.02 0.03 0.03 0.02 0.01 0.01 0.01 0.01 0.01 0.01 0.01
0.02 0.01 0.03 0.05 0.06 0.06 0.06 0.07 0.08 0.06 0.04 0.03 0.04 0.03 0.04 0.05 0.04 0.03 0.03 0.03 0.02 0.02 0.01 0.01 0.01 0.01 0.01 0.01 0.01 0.01 0.01 0.02 0.01 0.00 0.01 0.01 0.00 0.01 0.01 0.01 0.01 0.01 0.01
0.01 0.01 0.03 0.05 0.07 0.08 0.09 0.07 0.05 0.05 0.04 0.03 0.03 0.02 0.03 0.04 0.02 0.01 0.01 0.01 0.01 0.01 0.01 0.01 0.01 0.01 0.01 0.01 0.00 0.00 0.01 0.01 0.00 0.00 0.00 0.01 0.01 0.01 0.01 0.01 0.01 0.01 0.01
0.01 0.01 0.02 0.04 0.08 0.10 0.10 0.10 0.06 0.05 0.05 0.03 0.02 0.01 0.02 0.02 0.01 0.01 0.00 0.01 0.01 0.01 0.01 0.01 0.01 0.01 0.00 0.00 0.00 0.00 0.00 0.00 0.00 0.00 0.00 0.00 0.01 0.01 0.00 0.00 0.00 0.00 0.00
0.01 0.01 0.01 0.03 0.06 0.08 0.09 0.09 0.06 0.05 0.07 0.06 0.03 0.02 0.01 0.01 0.01 0.00 0.00 0.00 0.01 0.01 0.01 0.01 0.01 0.00 0.00 0.00 0.00 0.00 0.00 0.00 0.00 0.00 0.00 0.00 0.01 0.01 0.01 0.01 0.00 0.00 0.00
0.01 0.01 0.01 0.03 0.05 0.05 0.06 0.07 0.07 0.06 0.06 0.05 0.03 0.02 0.01 0.01 0.01 0.01 0.01 0.01 0.01 0.01 0.01 0.01 0.00 0.00 0.00 0.00 0.00 0.00 0.01 0.01 0.01 0.01 0.01 0.01 0.01 0.01 0.02 0.01 0.01 0.00 0.00
0.02 0.02 0.02 0.04 0.05 0.05 0.04 0.04 0.06 0.05 0.05 0.03 0.02 0.01 0.01 0.01 0.01 0.01 0.00 0.01 0.01 0.00 0.01 0.00 0.00 0.00 0.00 0.01 0.02 0.02 0.01 0.01 0.01 0.01 0.01 0.01 0.00 0.01 0.02 0.01 0.01 0.01 0.00
0.03 0.03 0.04 0.06 0.05 0.04 0.04 0.04 0.03 0.03 0.02 0.01 0.01 0.01 0.01 0.01 0.01 0.01 0.01 0.00 0.01 0.00 0.00 0.00 0.00 0.00 0.00 0.01 0.01 0.01 0.01 0.01 0.01 0.01 0.01 0.01 0.01 0.01 0.01 0.02 0.01 0.01 0.02
0.04 0.04 0.05 0.06 0.06 0.04 0.03 0.03 0.03 0.02 0.01 0.01 0.01 0.01 0.01 0.01 0.01 0.00 0.01 0.01 0.00 0.00 0.00 0.00 0.00 0.00 0.00 0.00 0.00 0.01 0.01 0.01 0.01 0.00 0.01 0.01 0.01 0.01 0.01 0.01 0.01 0.01 0.02
0.03 0.04 0.03 0.05 0.07 0.05 0.03 0.02 0.02 0.02 0.01 0.01 0.01 0.01 0.01 0.01 0.00 0.01 0.01 0.01 0.00 0.00 0.00 0.00 0.00 0.01 0.01 0.00 0.00 0.00 0.01 0.01 0.01 0.00 0.01 0.01 0.00 0.00 0.01 0.01 0.01 0.01 0.03
0.03 0.02 0.02 0.04 0.07 0.05 0.02 0.01 0.01 0.01 0.01 0.01 0.01 0.01 0.01 0.01 0.02 0.02 0.01 0.00 0.00 0.00 0.00 0.01 0.01 0.01 0.01 0.00 0.00 0.00 0.01 0.01 0.01 0.01 0.01 0.01 0.01 0.01 0.02 0.03 0.02 0.02 0.03
0.03 0.03 0.03 0.04 0.04 0.04 0.03 0.03 0.03 0.02 0.01 0.01 0.01 0.01 0.02 0.02 0.02 0.01 0.00 0.00 0.01 0.00 0.01 0.01 0.01 0.01 0.01 0.01 0.01 0.01 0.02 0.02 0.01 0.01 0.01 0.01 0.01 0.01 0.02 0.03 0.04 0.03 0.03
0.03 0.02 0.03 0.03 0.03 0.03 0.04 0.04 0.03 0.02 0.02 0.02 0.01 0.01 0.01 0.02 0.02 0.01 0.00 0.00 0.00 0.01 0.01 0.01 0.01 0.01 0.01 0.01 0.01 0.01 0.01 0.01 0.01 0.00 0.00 0.00 0.00 0.01 0.02 0.04 0.05 0.04 0.03
MSLP
1011.57 1011.07 1010.58 1010.10 1009.65 1009.25 1008.94 1008.75 1008.71 1008.81 1009.05 1009.40 1009.82 1010.27 1010.71 1011.13 1011.50 1011.83 1012.13 1012.42 1012.72 1013.01 1013.30 1013.58 1013.82 1014.03 1014.18 1014.28 1014.34 1014.37 1014.40 1014.44 1014.51 1014.61 1014.73 1014.88 1015.02 1015.16 1015.28 1015.36 1015.41 1015.44 1015.43
1011.92 1011.40 1010.85 1010.29 1009.74 1009.25 1008.88 1008.65 1008.63 1008.80 1009.14 1009.63 1010.18 1010.76 1011.29 1011.76 1012.14 1012.45 1012.70 1012.94 1013.17 1013.42 1013.68 1013.95 1014.19 1014.40 1014.55 1014.64 1014.68 1014.69 1014.69 1014.71 1014.76 1014.86 1015.00 1015.16 1015.34 1015.51 1015.65 1015.75 1015.80 1015.80 1015.76
1012.21 1011.69 1011.13 1010.52 1009.92 1009.37 1008.95 1008.71 1008.71 1008.94 1009.39 1010.00 1010.68 1011.37 1011.99 1012.51 1012.91 1013.20 1013.41 1013.59 1013.77 1013.98 1014.21 1014.46 1014.70 1014.90 1015.05 1015.14 1015.17 1015.17 1015.15 1015.15 1015.20 1015.30 1015.46 1015.65 1015.86 1016.06 1016.22 1016.32 1016.36 1016.33 1016.24
1012.42 1011.97 1011.43 1010.83 1010.22 1009.65 1009.21 1008.98 1009.00 1009.30 1009.83 1010.53 1011.31 1012.09 1012.79 1013.36 1013.77 1014.05 1014.24 1014.38 1014.52 1014.68 1014.88 1015.11 1015.34 1015.54 1015.69 1015.78 1015.81 1015.81 1015.79 1015.80 1015.86 1015.97 1016.15 1016.37 1016.59 1016.81 1016.97 1017.06 1017.07 1017.00 1016.87
1012.59 1012.22 1011.77 1011.23 1010.66 1010.12 1009.70 1009.49 1009.55 1009.88 1010.46 1011.22 1012.06 1012.90 1013.65 1014.26 1014.69 1014.97 1015.14 1015.26 1015.37 1015.50 1015.68 1015.88 1016.10 1016.30 1016.45 1016.54 1016.58 1016.59 1016.59 1016.61 1016.69 1016.83 1017.02 1017.25 1017.49 1017.70 1017.84 1017.91 1017.88 1017.77 1017.58
1012.71 1012.48 1012.16 1011.73 1011.25 1010.78 1010.42 1010.24 1010.33 1010.68 1011.27 1012.05 1012.92 1013.77 1014.54 1015.16 1015.60 1015.89 1016.06 1016.17 1016.26 1016.38 1016.54 1016.73 1016.93 1017.12 1017.27 1017.37 1017.42 1017.45 1017.47 1017.52 1017.62 1017.78 1017.99 1018.22 1018.45 1018.64 1018.76 1018.78 1018.71 1018.55 1018.30
1012.82 1012.75 1012.58 1012.31 1011.96 1011.60 1011.32 1011.20 1011.30 1011.66 1012.24 1012.99 1013.83 1014.67 1015.42 1016.03 1016.48 1016.78 1016.96 1017.07 1017.16 1017.27 1017.41 1017.58 1017.77 1017.94 1018.09 1018.19 1018.25 1018.30 1018.35 1018.42 1018.55 1018.72 1018.94 1019.16 1019.37 1019.53 1019.61 1019.58 1019.46 1019.24 1018.95
1012.93 1013.02 1013.02 1012.93 1012.74 1012.52 1012.34 1012.29 1012.42 1012.76 1013.30 1013.99 1014.77 1015.56 1016.27 1016.86 1017.29 1017.59 1017.78 1017.91 1018.01 1018.12 1018.25 1018.40 1018.56 1018.71 1018.84 1018.94 1019.00 1019.06 1019.13 1019.22 1019.36 1019.54 1019.75 1019.96 1020.14 1020.26 1020.29 1020.22 1020.05 1019.80 1019.47
1013.03 1013.27 1013.45 1013.54 1013.53 1013.46 1013.40 1013.42 1013.57 1013.90 1014.39 1015.01 1015.71 1016.42 1017.07 1017.61 1018.03 1018.33 1018.54 1018.68 1018.79 1018.89 1019.01 1019.14 1019.28 1019.40 1019.49 1019.57 1019.62 1019.68 1019.75 1019.85 1019.99 1020.16 1020.35 1020.53 1020.68 1020.76 1020.75 1020.64 1020.44 1020.16 1019.81
1013.11 1013.50 1013.83 1014.08 1014.24 1014.32 1014.39 1014.49 1014.69 1015.01 1015.45 1016.00 1016.62 1017.24 1017.82 1018.31 1018.71 1019.01 1019.22 1019.37 1019.49 1019.60 1019.71 1019.81 1019.91 1019.98 1020.04 1020.08 1020.11 1020.14 1020.20 1020.28 1020.41 1020.56 1020.72 1020.87 1020.98 1021.02 1020.97 1020.83 1020.61 1020.32 1019.98
1013.17 1013.66 1014.12 1014.51 1014.81 1015.04 1015.23 1015.43 1015.67 1016.01 1016.43 1016.92 1017.46 1018.01 1018.52 1018.97 1019.34 1019.63 1019.84 1020.01 1020.14 1020.24 1020.33 1020.41 1020.46 1020.49 1020.50 1020.49 1020.48 1020.47 1020.49 1020.55 1020.64 1020.76 1020.88 1020.99 1021.06 1021.06 1020.99 1020.83 1020.61 1020.32 1019.99
1013.19 1013.74 1014.29 1014.78 1015.20 1015.55 1015.86 1016.15 1016.47 1016.84 1017.26 1017.73 1018.22 1018.72 1019.18 1019.59 1019.93 1020.21 1020.43 1020.60 1020.73 1020.83 1020.91 1020.95 1020.97 1020.95 1020.91 1020.85 1020.78 1020.73 1020.71 1020.72 1020.77 1020.84 1020.92 1020.98 1021.01 1020.98 1020.88 1020.71 1020.49 1020.21 1019.89
1013.17 1013.75 1014.34 1014.89 1015.39 1015.85 1016.26 1016.66 1017.07 1017.49 1017.94 1018.42 1018.89 1019.35 1019.78 1020.16 1020.48 1020.75 1020.96 1021.14 1021.27 1021.37 1021.43 1021.45 1021.43 1021.38 1021.29 1021.18 1021.07 1020.98 1020.91 1020.87 1020.87 1020.89 1020.91 1020.93 1020.91 1020.84 1020.72 1020.54 1020.30 1020.03 1019.72
1013.11 1013.70 1014.29 1014.87 1015.43 1015.95 1016.46 1016.96 1017.45 1017.96 1018.46 1018.96 1019.45 1019.90 1020.31 1020.67 1020.97 1021.23 1021.44 1021.60 1021.73 1021.83 1021.88 1021.89 1021.85 1021.77 1021.66 1021.52 1021.37 1021.24 1021.13 1021.04 1020.99 1020.96 1020.93 1020.89 1020.82 1020.72 1020.56 1020.36 1020.11 1019.83 1019.52
1013.02 1013.60 1014.18 1014.76 1015.34 1015.92 1016.50 1017.09 1017.68 1018.26 1018.83 1019.38 1019.89 1020.34 1020.74 1021.09 1021.37 1021.61 1021.81 1021.97 1022.10 1022.19 1022.24 1022.25 1022.21 1022.12 1022.00 1021.85 1021.68 1021.52 1021.38 1021.26 1021.16 1021.08 1021.00 1020.90 1020.78 1020.63 1020.43 1020.20 1019.93 1019.63 1019.30
1012.91 1013.47 1014.04 1014.61 1015.21 1015.83 1016.47 1017.12 1017.79 1018.45 1019.08 1019.68 1020.21 1020.68 1021.07 1021.39 1021.66 1021.88 1022.06 1022.21 1022.33 1022.42 1022.48 1022.50 1022.47 1022.39 1022.28 1022.13 1021.97 1021.81 1021.65 1021.50 1021.37 1021.24 1021.11 1020.96 1020.79 1020.58 1020.34 1020.06 1019.75 1019.41 1019.06
1012.78 1013.34 1013.90 1014.48 1015.08 1015.73 1016.41 1017.13 1017.85 1018.57 1019.25 1019.88 1020.43 1020.89 1021.27 1021.58 1021.82 1022.01 1022.17 1022.30 1022.42 1022.51 1022.58 1022.62 1022.61 1022.57 1022.48 1022.36 1022.21 1022.06 1021.89 1021.73 1021.57 1021.41 1021.24 1021.04 1020.82 1020.56 1020.26 1019.93 1019.57 1019.19 1018.80
1012.63 1013.22 1013.80 1014.39 1015.01 1015.68 1016.39 1017.14 1017.91 1018.65 1019.36 1020.00 1020.55 1021.00 1021.36 1021.63 1021.84 1022.01 1022.15 1022.27 1022.38 1022.48 1022.56 1022.62 1022.65 1022.63 1022.58 1022.49 1022.37 1022.23 1022.08 1021.92 1021.75 1021.56 1021.35 1021.11 1020.84 1020.53 1020.18 1019.80 1019.40 1018.97 1018.54
1012.44 1013.10 1013.72 1014.35 1015.00 1015.69 1016.43 1017.20 1017.97 1018.73 1019.43 1020.06 1020.59 1021.02 1021.35 1021.59 1021.77 1021.91 1022.03 1022.14 1022.25 1022.36 1022.46 1022.54 1022.60 1022.62 1022.60 1022.54 1022.45 1022.33 1022.19 1022.03 1021.85 1021.65 1021.42 1021.15 1020.85 1020.50 1020.11 1019.69 1019.24 1018.78 1018.31
1012.22 1012.96 1013.66 1014.34 1015.04 1015.76 1016.51 1017.28 1018.05 1018.79 1019.47 1020.06 1020.56 1020.96 1021.26 1021.47 1021.63 1021.76 1021.87 1021.97 1022.09 1022.21 1022.33 1022.43 1022.51 1022.56 1022.56 1022.53 1022.47 1022.37 1022.24 1022.09 1021.91 1021.70 1021.46 1021.17 1020.85 1020.48 1020.06 1019.61 1019.14 1018.65 1018.16
1011.95 1012.80 1013.59 1014.34 1015.09 1015.83 1016.59 1017.36 1018.10 1018.81 1019.45 1020.01 1020.47 1020.84 1021.11 1021.31 1021.46 1021.58 1021.70 1021.81 1021.94 1022.07 1022.21 1022.33 1022.42 1022.49 1022.51 1022.50 1022.45 1022.36 1022.24 1022.10 1021.92 1021.72 1021.48 1021.19 1020.86 1020.49 1020.07 1019.61 1019.13 1018.63 1018.12
1011.66 1012.62 1013.49 1014.31 1015.11 1015.88 1016.64 1017.39 1018.11 1018.78 1019.38 1019.90 1020.33 1020.67 1020.93 1021.13 1021.29 1021.42 1021.55 1021.69 1021.83 1021.98 1022.13 1022.26 1022.37 1022.44 1022.47 1022.46 1022.41 1022.33 1022.23 1022.09 1021.93 1021.73 1021.51 1021.24 1020.92 1020.57 1020.16 1019.71 1019.24 1018.74 1018.23
1011.37 1012.41 1013.36 1014.24 1015.07 1015.86 1016.62 1017.35 1018.03 1018.67 1019.23 1019.72 1020.13 1020.46 1020.72 1020.93 1021.11 1021.27 1021.43 1021.60 1021.76 1021.93 1022.09 1022.22 1022.33 1022.40 1022.43 1022.42 1022.38 1022.31 1022.21 1022.09 1021.94 1021.77 1021.57 1021.33 1021.04 1020.72 1020.34 1019.92 1019.46 1018.98 1018.48
1011.11 1012.20 1013.19 1014.11 1014.96 1015.75 1016.51 1017.21 1017.87 1018.47 1019.01 1019.48 1019.88 1020.21 1020.49 1020.73 1020.94 1021.13 1021.32 1021.51 1021.70 1021.88 1022.05 1022.18 1022.29 1022.35 1022.38 1022.37 1022.33 1022.27 1022.18 1022.08 1021.96 1021.82 1021.66 1021.46 1021.22 1020.93 1020.59 1020.21 1019.79 1019.33 1018.84
1010.91 1012.01 1013.02 1013.94 1014.78 1015.57 1016.31 1017.00 1017.63 1018.21 1018.73 1019.19 1019.60 1019.94 1020.24 1020.51 1020.75 1020.98 1021.20 1021.41 1021.61 1021.79 1021.96 1022.09 1022.19 1022.25 1022.28 1022.27 1022.25 1022.20 1022.14 1022.07 1021.98 1021.88 1021.76 1021.61 1021.42 1021.18 1020.89 1020.55 1020.16 1019.73 1019.26
1010.79 1011.86 1012.84 1013.74 1014.57 1015.34 1016.05 1016.72 1017.34 1017.91 1018.42 1018.89 1019.30 1019.66 1019.99 1020.27 1020.54 1020.78 1021.02 1021.23 1021.44 1021.62 1021.78 1021.91 1022.00 1022.07 1022.10 1022.11 1022.10 1022.08 1022.05 1022.02 1021.98 1021.93 1021.86 1021.75 1021.61 1021.42 1021.18 1020.88 1020.53 1020.13 1019.68
Thickness
5722 5722 5721 5721 5719 5717 5716 5715 5712 5711 5710 5709 5708 5706 5705 5705 5704 5704 5703 5702 5701 5699 5698 5696 5694 5692 5690 5688 5687 5685 5683 5681 5680 5677 5675 5676 5677 5677 5676 5675 5674 5674 5674
5714 5715 5715 5716 5715 5714 5713 5711 5709 5708 5707 5707 5706 5704 5702 5701 5700 5699 5698 5698 5697 5695 5694 5692 5690 5688 5686 5684 5682 5680 5678 5676 5675 5672 5668 5666 5668 5670 5671 5669 5669 5668 5668
5711 5710 5709 5710 5710 5709 5709 5709 5707 5706 5705 5704 5702 5700 5697 5696 5695 5694 5693 5693 5693 5691 5689 5688 5686 5684 5682 5680 5678 5677 5674 5671 5670 5669 5665 5661 5659 5660 5663 5663 5662 5661 5661
5708 5707 5706 5705 5705 5706 5706 5706 5705 5703 5702 5700 5699 5697 5694 5692 5691 5689 5689 5688 5688 5687 5686 5684 5682 5680 5678 5676 5675 5673 5671 5669 5666 5664 5662 5660 5658 5654 5653 5655 5655 5655 5655
5707 5706 5706 5705 5704 5704 5703 5703 5701 5699 5699 5697 5696 5694 5692 5690 5688 5686 5685 5684 5683 5683 5682 5680 5678 5677 5675 5674 5672 5670 5668 5666 5664 5661 5659 5656 5653 5650 5648 5647 5648 5648 5649
5706 5705 5705 5703 5701 5701 5700 5699 5697 5696 5695 5694 5693 5691 5689 5686 5684 5683 5681 5679 5679 5679 5678 5676 5675 5674 5672 5670 5669 5667 5665 5663 5661 5659 5657 5655 5651 5648 5645 5643 5642 5642 5643
5704 5702 5701 5700 5699 5697 5697 5696 5695 5692 5691 5689 5688 5687 5685 5683 5681 5680 5678 5676 5675 5675 5675 5673 5672 5671 5670 5668 5666 5665 5662 5661 5658 5656 5654 5653 5650 5647 5644 5640 5638 5637 5637
5703 5701 5700 5699 5697 5696 5694 5693 5691 5689 5688 5686 5684 5683 5681 5680 5678 5677 5675 5674 5673 5673 5672 5671 5669 5669 5667 5666 5663 5662 5659 5658 5656 5654 5652 5650 5647 5644 5642 5638 5634 5632 5631
5701 5699 5698 5697 5695 5694 5691 5690 5689 5686 5685 5683 5681 5680 5678 5677 5675 5674 5673 5672 5671 5670 5669 5668 5667 5666 5664 5663 5660 5658 5656 5654 5652 5650 5649 5646 5643 5640 5637 5634 5631 5628 5626
5697 5696 5695 5694 5693 5691 5689 5687 5685 5683 5682 5680 5679 5678 5675 5674 5673 5671 5669 5668 5667 5667 5666 5665 5664 5662 5661 5659 5657 5655 5653 5650 5649 5647 5644 5642 5639 5635 5632 5629 5626 5623 5621
5695 5693 5692 5691 5690 5688 5686 5684 5682 5680 5679 5677 5675 5674 5672 5671 5670 5668 5666 5664 5664 5664 5662 5662 5661 5659 5658 5656 5654 5652 5649 5647 5645 5643 5640 5637 5634 5631 5627 5625 5622 5619 5616
5693 5691 5689 5687 5685 5684 5683 5682 5680 5678 5677 5675 5672 5671 5669 5667 5665 5664 5663 5662 5661 5660 5660 5659 5658 5656 5654 5653 5651 5648 5646 5643 5641 5639 5636 5633 5630 5627 5623 5620 5617 5614 5612
5689 5688 5686 5684 5682 5682 5680 5679 5678 5676 5674 5672 5670 5668 5666 5664 5662 5661 5660 5659 5657 5657 5656 5655 5653 5652 5651 5649 5647 5644 5642 5640 5637 5635 5632 5629 5626 5623 5620 5616 5613 5610 5608
5687 5685 5682 5680 5680 5679 5677 5676 5675 5673 5671 5669 5667 5665 5663 5662 5660 5658 5657 5655 5654 5653 5652 5650 5649 5648 5646 5645 5643 5640 5638 5635 5633 5631 5628 5625 5622 5620 5616 5613 5609 5606 5603
5683 5682 5679 5677 5676 5676 5674 5673 5672 5670 5668 5666 5664 5662 5661 5659 5656 5654 5652 5651 5650 5649 5648 5646 5645 5643 5642 5641 5639 5636 5634 5631 5629 5627 5624 5622 5620 5617 5613 5610 5607 5603 5600
5681 5680 5678 5676 5674 5674 5672 5671 5669 5667 5665 5663 5661 5659 5657 5655 5652 5650 5649 5647 5646 5645 5643 5642 5640 5639 5639 5637 5635 5632 5629 5627 5624 5622 5621 5619 5616 5614 5610 5607 5604 5601 5597
5679 5677 5676 5675 5674 5672 5670 5668 5667 5665 5662 5660 5658 5656 5654 5651 5649 5648 5645 5643 5641 5639 5638 5637 5636 5635 5634 5633 5631 5628 5625 5623 5620 5619 5617 5616 5613 5610 5607 5604 5601 5598 5595
5676 5675 5674 5673 5671 5670 5668 5666 5664 5661 5658 5656 5655 5653 5651 5649 5646 5644 5642 5639 5637 5635 5634 5632 5631 5630 5630 5628 5626 5623 5620 5618 5617 5615 5613 5611 5608 5606 5603 5600 5597 5594 5592
5674 5673 5672 5671 5668 5666 5665 5661 5659 5657 5654 5653 5651 5650 5648 5646 5643 5641 5639 5637 5634 5632 5630 5628 5627 5625 5624 5623 5621 5618 5615 5613 5612 5611 5609 5607 5604 5602 5598 5596 5593 5591 5589
5670 5669 5668 5667 5665 5663 5660 5657 5654 5652 5651 5650 5649 5648 5645 5643 5640 5637 5635 5633 5631 5629 5627 5625 5623 5622 5620 5619 5617 5614 5611 5609 5608 5606 5605 5602 5600 5597 5594 5591 5588 5586 5585
5667 5666 5664 5662 5661 5659 5656 5652 5650 5649 5649 5648 5646 5644 5642 5639 5637 5634 5632 5630 5628 5626 5624 5622 5620 5618 5617 5615 5613 5610 5608 5606 5604 5602 5600 5599 5596 5593 5590 5587 5585 5583 5581
5661 5660 5658 5657 5656 5655 5652 5649 5646 5646 5645 5644 5642 5640 5639 5637 5635 5632 5629 5627 5624 5622 5619 5617 5616 5615 5614 5612 5610 5608 5605 5603 5600 5599 5597 5595 5592 5589 5587 5584 5581 5578 5576
5655 5654 5653 5652 5651 5650 5648 5645 5645 5643 5641 5638 5637 5635 5634 5633 5631 5628 5625 5623 5621 5619 5616 5614 5613 5612 5611 5610 5608 5605 5603 5600 5597 5595 5593 5591 5588 5586 5584 5581 5578 5575 5572
5647 5647 5647 5646 5645 5645 5644 5642 5641 5638 5636 5633 5632 5630 5629 5628 5627 5624 5622 5620 5618 5616 5615 5613 5611 5610 5608 5607 5605 5603 5600 5597 5593 5591 5589 5587 5585 5583 5581 5578 5576 5572 5570
5642 5642 5641 5641 5641 5641 5639 5638 5636 5633 5630 5629 5627 5626 5625 5624 5622 5621 5619 5618 5617 5616 5613 5612 5610 5607 5606 5606 5603 5599 5597 5594 5591 5588 5585 5584 5582 5580 5578 5575 5573 5570 5567
5636 5636 5636 5636 5636 5636 5635 5633 5632 5629 5627 5625 5623 5622 5620 5619 5618 5616 5615 5615 5614 5613 5611 5609 5607 5606 5604 5602 5599 5596 5593 5590 5587 5584 5583 5581 5579 5577 5575 5572 5570 5567 5565